Weather History for KSAZ - April, 2014

Change the Weather History Date:

Saturday, April 5, 2014

  Actual Average Record
Temperature  
Mean Temperature 34 °F -  
Max Temperature 46 °F 47 °F 95 °F (1999)
Min Temperature 21 °F 26 °F 1 °F (2007)
Degree Days  
Heating Degree Days 32    
Moisture  
Dew Point 29 °F    
Average Humidity 84    
Maximum Humidity 100    
Minimum Humidity 57    
Precipitation  
Precipitation 0.00 in - - ()
Sea Level Pressure  
Sea Level Pressure 29.95 in    
Wind  
Wind Speed 6 mph (SSE)    
Max Wind Speed 17 mph    
Max Gust Speed 23 mph    
Visibility 10 miles    
Events      
Averages and records for this station are not official NWS values.
T = Trace of Precipitation, MM = Missing Value Source: NWS Daily Summary

Daily Weather History Graph

Daily Weather History Graph

Search for Another Location

Airport or City:

Trip Planner

Search our weather history database for the weather conditions in past years. The results will help you decide how hot, cold, wet, or windy it might be!

Date:

Astronomy

Apr. 05, 2014 Rise Set
Actual Time 6:51 AM CDT 7:53 PM CDT
Civil Twilight 6:20 AM CDT 8:24 PM CDT
Nautical Twilight 5:43 AM CDT 9:01 PM CDT
Astronomical Twilight 5:04 AM CDT 9:40 PM CDT
Moon 10:47 AM CDT (4/5) 1:16 AM CDT (4/5)
Length of Visible Light 14h 03m
Length of Day
13h 02m
Waxing Crescent, 34% of the Moon is Illuminated
Apr 5
Waxing Crescent
Apr 7
First Quarter
Apr 15
Full
Apr 22
Last Quarter
Apr 29
New

Hourly Weather History & Observations

Time (CDT) Temp. Windchill Dew Point Humidity Pressure Visibility Wind Dir Wind Speed Gust Speed Precip Events Conditions
12:13 AM 24.8 °F - 24.8 °F 100% 30.01 in 10.0 mi Calm Calm - N/A   Clear
12:34 AM 24.8 °F - 24.8 °F 100% 30.02 in 10.0 mi Calm Calm - N/A   Clear
12:53 AM 24.8 °F - 24.8 °F 100% 30.02 in 10.0 mi Calm Calm - N/A   Clear
1:13 AM 24.8 °F - 23.0 °F 93% 30.02 in 10.0 mi Calm Calm - N/A   Clear
1:34 AM 21.2 °F - 21.2 °F 100% 30.02 in 7.0 mi Calm Calm - N/A   Clear
1:53 AM 23.0 °F - 23.0 °F 100% 30.02 in 7.0 mi Calm Calm - N/A   Clear
2:13 AM 21.2 °F - 21.2 °F 100% 30.02 in 7.0 mi Calm Calm - N/A   Clear
2:33 AM 21.2 °F - 21.2 °F 100% 30.02 in 7.0 mi Calm Calm - N/A   Clear
2:53 AM 23.0 °F - 23.0 °F 100% 30.02 in 7.0 mi Calm Calm - N/A   Clear
3:14 AM 21.2 °F - 21.2 °F 100% 30.02 in 10.0 mi Calm Calm - N/A   Clear
3:33 AM 21.2 °F - 21.2 °F 100% 30.02 in 7.0 mi Calm Calm - N/A   Clear
3:53 AM 21.2 °F 16.4 °F 21.2 °F 100% 30.02 in 10.0 mi SE 3.5 mph - N/A   Clear
4:14 AM 21.2 °F 16.4 °F 21.2 °F 100% 30.01 in 10.0 mi SSE 3.5 mph - N/A   Clear
4:33 AM 21.2 °F 16.4 °F 21.2 °F 100% 30.01 in 10.0 mi SSE 3.5 mph - N/A   Clear
4:54 AM 21.2 °F - 21.2 °F 100% 30.01 in 10.0 mi Calm Calm - N/A   Clear
5:13 AM 21.2 °F - 21.2 °F 100% 30.01 in 10.0 mi Calm Calm - N/A   Clear
5:34 AM 21.2 °F 16.4 °F 21.2 °F 100% 30.00 in 7.0 mi SSE 3.5 mph - N/A   Clear
5:53 AM 21.2 °F 16.4 °F 21.2 °F 100% 30.00 in 10.0 mi SE 3.5 mph - N/A   Clear
6:13 AM 21.2 °F 16.4 °F 21.2 °F 100% 30.00 in 10.0 mi South 3.5 mph - N/A   Clear
6:34 AM 21.2 °F 16.4 °F 21.2 °F 100% 30.00 in 10.0 mi SSE 3.5 mph - N/A   Clear
6:53 AM 21.2 °F 14.9 °F 21.2 °F 100% 30.00 in 7.0 mi South 4.6 mph - N/A   Clear
7:13 AM 21.2 °F 16.4 °F 21.2 °F 100% 30.00 in 7.0 mi SSE 3.5 mph - N/A   Clear
7:34 AM 21.2 °F 16.4 °F 21.2 °F 100% 30.00 in 7.0 mi SSE 3.5 mph - N/A   Clear
7:53 AM 23.0 °F 17.0 °F 23.0 °F 100% 30.01 in 7.0 mi SSE 4.6 mph - N/A   Clear
8:13 AM 24.8 °F 16.9 °F 24.8 °F 100% 30.00 in 10.0 mi South 6.9 mph - N/A   Clear
8:34 AM 26.6 °F 18.2 °F 24.8 °F 93% 30.00 in 10.0 mi South 8.1 mph - N/A   Clear
8:53 AM 28.4 °F 20.4 °F 26.6 °F 93% 30.00 in 10.0 mi South 8.1 mph - N/A   Clear
9:13 AM 28.4 °F 19.7 °F 26.6 °F 93% 30.00 in 10.0 mi SSE 9.2 mph - N/A   Clear
9:34 AM 30.2 °F 22.6 °F 26.6 °F 86% 29.99 in 10.0 mi SSE 8.1 mph - N/A   Clear
9:53 AM 32.0 °F 23.0 °F 26.6 °F 80% 29.99 in 10.0 mi South 11.5 mph - N/A   Clear
10:13 AM 33.8 °F 26.4 °F 28.4 °F 81% 29.98 in 10.0 mi South 9.2 mph - N/A   Clear
10:53 AM 37.4 °F 28.9 °F 28.4 °F 70% 29.98 in 10.0 mi SSE 13.8 mph - N/A   Clear
11:13 AM 37.4 °F 28.5 °F 28.4 °F 70% 29.97 in 10.0 mi South 15.0 mph - N/A   Clear
11:34 AM 39.2 °F 31.2 °F 28.4 °F 65% 29.97 in 10.0 mi South 13.8 mph 20.7 mph N/A   Clear
11:53 AM 39.2 °F 31.6 °F 28.4 °F 65% 29.96 in 10.0 mi South 12.7 mph 20.7 mph N/A   Clear
12:13 PM 41.0 °F 33.1 °F 28.4 °F 61% 29.95 in 10.0 mi South 15.0 mph - N/A   Clear
12:33 PM 42.8 °F 35.4 °F 28.4 °F 57% 29.95 in 10.0 mi South 15.0 mph 21.9 mph N/A   Clear
12:53 PM 42.8 °F 35.4 °F 28.4 °F 57% 29.95 in 10.0 mi South 15.0 mph 20.7 mph N/A   Clear
1:13 PM 42.8 °F 35.1 °F 30.2 °F 61% 29.94 in 10.0 mi South 16.1 mph 19.6 mph N/A   Clear
1:33 PM 44.6 °F 37.8 °F 30.2 °F 57% 29.94 in 10.0 mi South 15.0 mph 20.7 mph N/A   Clear
1:54 PM 44.6 °F 38.4 °F 32.0 °F 61% 29.92 in 10.0 mi SSE 12.7 mph - N/A   Clear
2:13 PM 44.6 °F 37.8 °F 32.0 °F 61% 29.92 in 10.0 mi South 15.0 mph - N/A   Clear
2:33 PM 46.4 °F 40.1 °F 32.0 °F 57% 29.91 in 10.0 mi South 15.0 mph - N/A   Clear
2:53 PM 46.4 °F 40.7 °F 33.8 °F 62% 29.90 in 10.0 mi South 12.7 mph 17.3 mph N/A   Clear
3:13 PM 46.4 °F 40.1 °F 33.8 °F 62% 29.90 in 10.0 mi SSE 15.0 mph - N/A   Clear
3:33 PM 46.4 °F 40.7 °F 33.8 °F 62% 29.90 in 10.0 mi South 12.7 mph - N/A   Clear
3:53 PM 46.4 °F 39.5 °F 33.8 °F 62% 29.90 in 10.0 mi South 17.3 mph - N/A   Mostly Cloudy
4:13 PM 46.4 °F 39.5 °F 33.8 °F 62% 29.90 in 10.0 mi South 17.3 mph 21.9 mph N/A   Scattered Clouds
4:33 PM 44.6 °F 37.4 °F 35.6 °F 71% 29.90 in 10.0 mi South 16.1 mph 23.0 mph N/A   Clear
4:53 PM 44.6 °F 37.2 °F 35.6 °F 71% 29.89 in 10.0 mi South 17.3 mph - N/A   Clear
5:13 PM 44.6 °F 37.4 °F 35.6 °F 71% 29.88 in 10.0 mi SSE 16.1 mph - N/A   Clear
5:33 PM 44.6 °F 38.1 °F 35.6 °F 71% 29.87 in 10.0 mi SSE 13.8 mph 20.7 mph N/A   Clear
5:54 PM 42.8 °F 35.8 °F 33.8 °F 70% 29.88 in 10.0 mi South 13.8 mph 19.6 mph N/A   Mostly Cloudy
6:13 PM 42.8 °F 36.6 °F 33.8 °F 70% 29.89 in 10.0 mi South 11.5 mph - N/A   Mostly Cloudy
6:33 PM 41.0 °F 34.7 °F 33.8 °F 76% 29.90 in 10.0 mi South 10.4 mph - N/A   Mostly Cloudy
6:54 PM 42.8 °F 35.4 °F 33.8 °F 70% 29.89 in 10.0 mi South 15.0 mph - N/A   Mostly Cloudy
7:13 PM 39.2 °F 31.2 °F 33.8 °F 81% 29.89 in 10.0 mi South 13.8 mph - N/A   Scattered Clouds
7:33 PM 39.2 °F 31.2 °F 33.8 °F 81% 29.88 in 10.0 mi South 13.8 mph - N/A   Clear
7:53 PM 39.2 °F 32.0 °F 33.8 °F 81% 29.88 in 10.0 mi South 11.5 mph 17.3 mph N/A   Scattered Clouds
8:13 PM 37.4 °F 30.3 °F 33.8 °F 87% 29.88 in 10.0 mi South 10.4 mph - N/A   Mostly Cloudy
8:34 PM 37.4 °F 30.8 °F 33.8 °F 87% 29.89 in 10.0 mi South 9.2 mph - N/A   Scattered Clouds
8:53 PM 37.4 °F 30.8 °F 33.8 °F 87% 29.89 in 10.0 mi South 9.2 mph - N/A   Clear
9:14 PM 37.4 °F 31.4 °F 33.8 °F 87% 29.89 in 10.0 mi South 8.1 mph - N/A   Mostly Cloudy
9:33 PM 37.4 °F 32.1 °F 33.8 °F 87% 29.89 in 10.0 mi South 6.9 mph - N/A   Scattered Clouds
9:53 PM 37.4 °F 31.4 °F 33.8 °F 87% 29.89 in 10.0 mi South 8.1 mph - N/A   Clear
10:14 PM 37.4 °F 31.4 °F 33.8 °F 87% 29.88 in 10.0 mi South 8.1 mph - N/A   Clear
10:33 PM 37.4 °F 31.4 °F 33.8 °F 87% 29.88 in 10.0 mi South 8.1 mph - N/A   Clear
10:53 PM 37.4 °F 30.8 °F 35.6 °F 93% 29.88 in 10.0 mi South 9.2 mph - N/A   Clear
11:14 PM 37.4 °F 30.8 °F 35.6 °F 93% 29.87 in 10.0 mi South 9.2 mph - N/A   Clear
11:33 PM 37.4 °F 32.1 °F 35.6 °F 93% 29.87 in 10.0 mi South 6.9 mph - N/A   Clear
11:53 PM 35.6 °F 31.7 °F 35.6 °F 100% 29.86 in 7.0 mi SSE 4.6 mph - N/A   Clear